Chicago Midway, IL

4:07 PM CST on December 12, 2019 (GMT -0600)
Chicago-Midway

Weather History for KMDW - October, 2019

Change the Weather History Date:

Saturday, October 26, 2019

  Actual Average Record
Temperature  
Mean Temperature 45 °F 51 °F  
Max Temperature 51 °F 59 °F 84 °F (1963)
Min Temperature 39 °F 43 °F 22 °F (1942)
Degree Days  
Heating Degree Days 20 14  
Month to date heating degree days 277 270  
Since 1 July heating degree days 278 352  
Cooling Degree Days 0 0  
Month to date cooling degree days 21 13  
Year to date cooling degree days 1131 1042  
Moisture  
Dew Point 43 °F    
Average Humidity 88    
Maximum Humidity 97    
Minimum Humidity 74    
Precipitation  
Precipitation 2.26 in 0.11 in 1.49 in (1997)
Month to date precipitation 3.84 2.67  
Year to date precipitation 41.66 32.53  
Sea Level Pressure  
Sea Level Pressure 29.80 in    
Wind  
Wind Speed 13 mph (ENE)    
Max Wind Speed 28 mph    
Max Gust Speed 36 mph    
Visibility 6 miles    
Events Rain    
T = Trace of Precipitation, MM = Missing Value Source: NWS Daily Summary

Daily Weather History Graph

Daily Weather History Graph

Search for Another Location

Airport or City:

Astronomy

Oct. 26, 2019 Rise Set
Actual Time 7:15 AM CDT 5:53 PM CDT
Civil Twilight 6:47 AM CDT 6:22 PM CDT
Nautical Twilight 6:14 AM CDT 6:54 PM CDT
Astronomical Twilight 5:42 AM CDT 7:26 PM CDT
Moon 5:07 AM CDT (10/26) 5:31 PM CDT (10/26)
Length of Visible Light 11h 34m
Length of Day
10h 37m
Waning Crescent, 3% of the Moon is Illuminated
Oct 26
Waning Crescent
Oct 27
New
Nov 4
First Quarter
Nov 12
Full
Nov 19
Last Quarter

Hourly Weather History & Observations

Time (CDT) Temp. Windchill Dew Point Humidity Pressure Visibility Wind Dir Wind Speed Gust Speed Precip Events Conditions
12:53 AM 42.1 °F 39.2 °F 37.9 °F 85% 30.22 in 10.0 mi South 4.6 mph - N/A   Mostly Cloudy
1:53 AM 42.1 °F 40.2 °F 37.0 °F 82% 30.19 in 10.0 mi SSE 3.5 mph - N/A   Scattered Clouds
2:53 AM 39.9 °F - 36.0 °F 86% 30.18 in 10.0 mi Calm Calm - N/A   Mostly Cloudy
3:53 AM 39.9 °F 37.8 °F 36.0 °F 86% 30.16 in 10.0 mi ENE 3.5 mph - N/A   Mostly Cloudy
4:53 AM 39.9 °F - 36.0 °F 86% 30.15 in 10.0 mi Calm Calm - N/A   Mostly Cloudy
5:53 AM 42.1 °F 38.4 °F 37.9 °F 85% 30.12 in 9.0 mi East 5.8 mph - N/A   Mostly Cloudy
6:53 AM 42.1 °F 40.2 °F 37.0 °F 82% 30.13 in 9.0 mi East 3.5 mph - N/A   Mostly Cloudy
7:53 AM 45.0 °F 40.1 °F 37.9 °F 76% 30.07 in 10.0 mi East 9.2 mph - N/A   Mostly Cloudy
8:53 AM 46.9 °F - 39.0 °F 74% 30.06 in 10.0 mi East 13.8 mph - N/A   Mostly Cloudy
9:53 AM 46.9 °F - 39.0 °F 74% 30.04 in 10.0 mi East 13.8 mph - N/A   Mostly Cloudy
10:53 AM 46.9 °F - 39.0 °F 74% 30.01 in 10.0 mi East 11.5 mph - N/A   Overcast
11:53 AM 48.0 °F - 39.9 °F 74% 29.96 in 10.0 mi East 13.8 mph - N/A   Overcast
12:53 PM 46.9 °F - 43.0 °F 86% 29.91 in 10.0 mi East 13.8 mph - 0.02 in Rain Light Rain
1:37 PM 46.9 °F - 44.1 °F 90% 29.89 in 7.0 mi ENE 10.4 mph - 0.03 in Rain Light Rain
1:53 PM 46.9 °F - 44.1 °F 90% 29.88 in 4.0 mi ENE 11.5 mph - 0.06 in Rain Light Rain
2:23 PM 46.9 °F - 45.0 °F 93% 29.82 in 2.5 mi ENE 13.8 mph - 0.05 in Rain Rain
2:53 PM 46.9 °F - 45.0 °F 93% 29.81 in 2.5 mi ENE 15.0 mph - 0.09 in Rain Rain
3:43 PM 48.0 °F - 46.0 °F 93% 29.72 in 1.8 mi NE 17.3 mph 27.6 mph 0.08 in Rain Rain
3:53 PM 48.0 °F - 46.0 °F 93% 29.73 in 2.5 mi ENE 19.6 mph 28.8 mph 0.09 in Rain Light Rain
4:53 PM 48.0 °F - 46.9 °F 96% 29.69 in 2.0 mi ENE 18.4 mph - 0.16 in Rain Heavy Rain
5:53 PM 48.0 °F - 46.9 °F 96% 29.63 in 1.8 mi NE 20.7 mph 27.6 mph 0.44 in Rain Heavy Rain
6:53 PM 48.0 °F - 46.9 °F 96% 29.60 in 1.5 mi North 15.0 mph - 0.59 in Rain Heavy Rain
7:29 PM 48.0 °F - 46.9 °F 96% 29.54 in 2.0 mi NNE 18.4 mph - 0.36 in Rain Heavy Rain
7:53 PM 48.9 °F - 48.0 °F 97% 29.51 in 2.5 mi NNE 20.7 mph 32.2 mph 0.42 in Rain Light Rain
8:10 PM 48.9 °F - 48.0 °F 97% 29.48 in 2.0 mi NNE 21.9 mph 31.1 mph 0.03 in Rain Rain
8:53 PM 48.9 °F - 48.0 °F 97% 29.45 in 2.0 mi NNE 18.4 mph 27.6 mph 0.17 in Rain Rain
9:53 PM 51.1 °F - 48.9 °F 92% 29.42 in 4.0 mi NE 18.4 mph 25.3 mph 0.14 in Rain Light Rain
10:26 PM 51.1 °F - 48.9 °F 92% 29.40 in 5.0 mi NNE 21.9 mph 31.1 mph 0.01 in Rain Light Rain
10:53 PM 50.0 °F - 48.0 °F 93% 29.39 in 4.0 mi NNE 20.7 mph 31.1 mph 0.01 in Rain Light Rain
11:37 PM 50.0 °F - 48.0 °F 93% 29.38 in 2.5 mi North 13.8 mph 26.5 mph 0.02 in Rain Light Rain
11:53 PM 50.0 °F - 48.0 °F 93% 29.40 in 2.5 mi NNW 13.8 mph - 0.04 in Rain Light Rain